Location: Doussal
(55.6167°N, 116.8333°W)
Time: 03:57:41
(UTC+00:00)

METEOR M2 - Pass Details

Date: 15 December 2023
Orbit: 818 x 826 km, 98.4° (Epoch: 25 February)

Event Time Altitude Azimuth Distance (km) Brightness Sun altitude
Rises 13:21:13 0° 18° (NNE) 3,373 ? -22.0°
Reaches altitude 10° 13:23:40 10° 24° (NNE) 2,434 ? -21.6°
Maximum altitude 13:28:53 48° 99° (E) 1,069 ? -20.9°
Drops below altitude 10° 13:34:02 10° 173° (S) 2,413 ? -20.2°
Sets 13:36:27 0° 179° (S) 3,340 ? -19.8°
